Weather History for KLRF - October, 2012

Change the Weather History Date:

Monday, October 15, 2012

  Actual Average Record
Temperature  
Mean Temperature 63 °F -  
Max Temperature 79 °F 75 °F 89 °F (1999)
Min Temperature 47 °F 49 °F 34 °F (1978)
Degree Days  
Heating Degree Days 2    
Growing Degree Days 13 (Base 50)    
Moisture  
Dew Point 51 °F    
Average Humidity 69    
Maximum Humidity 96    
Minimum Humidity 36    
Precipitation  
Precipitation 0.00 in - - ()
Sea Level Pressure  
Sea Level Pressure 30.02 in    
Wind  
Wind Speed 3 mph (SSW)    
Max Wind Speed 10 mph    
Max Gust Speed -    
Visibility 10 miles    
Events      
Averages and records for this station are not official NWS values.
T = Trace of Precipitation, MM = Missing Value Source: NWS Daily Summary

Daily Weather History Graph

Daily Weather History Graph

Search for Another Location

Airport or City:

Trip Planner

Search our weather history database for the weather conditions in past years. The results will help you decide how hot, cold, wet, or windy it might be!

Date:

Astronomy

Oct. 15, 2012 Rise Set
Actual Time 7:14 AM CDT 6:33 PM CDT
Civil Twilight 6:49 AM CDT 6:58 PM CDT
Nautical Twilight 6:19 AM CDT 7:27 PM CDT
Astronomical Twilight 5:50 AM CDT 7:57 PM CDT
Moon 7:23 AM CDT (10/15) 6:36 PM CDT (10/15)
Length of Visible Light 12h 09m
Length of Day
11h 18m
New Moon, 0% of the Moon is Illuminated
Oct 15
New Moon
Oct 21
First Quarter
Oct 29
Full
Nov 6
Last Quarter
Nov 13
New

Hourly Weather History & Observations

Time (CDT) Temp. Dew Point Humidity Pressure Visibility Wind Dir Wind Speed Gust Speed Precip Events Conditions
12:55 AM 54.9 °F 51.8 °F 89% 30.03 in 10.0 mi WSW 5.8 mph - N/A   Clear
1:55 AM 54.9 °F 50.5 °F 85% 30.03 in 10.0 mi West 4.6 mph - N/A   Clear
2:55 AM 52.0 °F 49.8 °F 92% 30.04 in 10.0 mi Calm Calm - N/A   Clear
3:55 AM 51.1 °F 49.1 °F 93% 30.03 in 10.0 mi Calm Calm - N/A   Clear
4:55 AM 49.5 °F 48.0 °F 95% 30.04 in 10.0 mi Calm Calm - N/A   Clear
5:55 AM 48.4 °F 46.9 °F 95% 30.05 in 10.0 mi Calm Calm - N/A   Clear
6:55 AM 47.8 °F 46.8 °F 96% 30.06 in 10.0 mi Calm Calm - N/A   Clear
7:55 AM 49.3 °F 48.2 °F 96% 30.07 in 10.0 mi Calm Calm - N/A   Clear
8:55 AM 57.6 °F 53.2 °F 85% 30.08 in 10.0 mi Calm Calm - N/A   Clear
9:55 AM 64.0 °F 52.2 °F 65% 30.09 in 10.0 mi WNW 4.6 mph - N/A   Clear
10:55 AM 68.2 °F 52.9 °F 58% 30.09 in 10.0 mi Calm Calm - N/A   Clear
11:55 AM 72.1 °F 50.4 °F 46% 30.07 in 10.0 mi Calm Calm - N/A   Clear
12:55 PM 74.7 °F 50.7 °F 43% 30.05 in 10.0 mi Variable 3.5 mph - N/A   Clear
1:55 PM 76.5 °F 50.5 °F 40% 30.03 in 10.0 mi South 5.8 mph - N/A   Clear
2:55 PM 77.5 °F 51.3 °F 40% 30.01 in 10.0 mi South 10.4 mph - N/A   Clear
3:55 PM 79.3 °F 50.0 °F 36% 29.99 in 10.0 mi SSW 4.6 mph - N/A   Clear
4:55 PM 78.4 °F 51.3 °F 39% 29.96 in 10.0 mi SSE 4.6 mph - N/A   Clear
5:55 PM 75.2 °F 51.8 °F 44% 29.96 in 10.0 mi SSE 5.8 mph - N/A   Clear
6:55 PM 68.9 °F 53.6 °F 58% 29.96 in 10.0 mi SSE 4.6 mph - N/A   Clear
7:55 PM 67.5 °F 54.3 °F 63% 29.97 in 10.0 mi South 3.5 mph - N/A   Clear
8:55 PM 66.6 °F 54.1 °F 64% 29.98 in 10.0 mi South 6.9 mph - N/A   Clear
9:55 PM 64.8 °F 54.5 °F 69% 29.98 in 10.0 mi Calm Calm - N/A   Clear
10:55 PM 59.7 °F 54.5 °F 83% 29.99 in 10.0 mi Calm Calm - N/A   Clear
11:55 PM 57.4 °F 54.0 °F 88% 29.98 in 10.0 mi Calm Calm - N/A   Clear